LEGION 3

Last updated on Mon Oct 14 2024 00:02:25 GMT+0000 (Coordinated Universal Time)

1 60452U 24146A 24287.52958650 .00031722 00000+0 78097-3 0 9995 2 60452 44.9990 80.3427 0018125 291.6624 68.2333 15.39934182 9082
UTC large
Height (km)
Speed (km/s)
/
Latitude / Longitude
Inclination (degrees)
Orbital Period (minutes)
Azimuth
Elevation
Range (km)
Doppler Factor

Next 0 passes for location: London (51.5072 / 0.1276)

Sorry there are no passes over London.